Time,TemperatureF,DewpointF,PressureIn,WindDirection,WindDirectionDegrees,WindSpeedMPH,WindSpeedGustMPH,Humidity,HourlyPrecipIn,Conditions,Clouds,dailyrainin,SoftwareType,DateUTC
2013-02-27 00:00:00,44.1,28.5,29.83,SSE,167,0.0,3.0,54,0.00,,,0.00,Wunderground v.1.15,2013-02-27 06:00:00,
2013-02-27 00:10:00,43.7,28.6,29.83,SSE,167,0.0,3.0,55,0.00,,,0.00,Wunderground v.1.15,2013-02-27 06:10:00,
2013-02-27 00:20:00,43.4,28.7,29.82,SSE,166,0.0,3.0,56,0.00,,,0.00,Wunderground v.1.15,2013-02-27 06:20:00,
2013-02-27 00:30:00,43.2,28.5,29.83,SSE,166,0.0,3.0,56,0.00,,,0.00,Wunderground v.1.15,2013-02-27 06:30:00,
2013-02-27 00:40:00,42.9,28.7,29.82,SSE,166,0.0,3.0,57,0.00,,,0.00,Wunderground v.1.15,2013-02-27 06:40:00,
2013-02-27 00:50:00,42.5,28.3,29.82,SSE,166,0.0,3.0,57,0.00,,,0.00,Wunderground v.1.15,2013-02-27 06:50:00,
2013-02-27 01:00:00,42.3,28.6,29.82,SSE,158,0.0,3.0,58,0.00,,,0.00,Wunderground v.1.15,2013-02-27 07:00:00,
2013-02-27 01:10:00,42.1,28.4,29.82,SSE,159,0.0,3.0,58,0.00,,,0.00,Wunderground v.1.15,2013-02-27 07:10:00,
2013-02-27 01:20:00,42.0,28.3,29.81,SSE,159,0.0,3.0,58,0.00,,,0.00,Wunderground v.1.15,2013-02-27 07:20:00,
2013-02-27 01:30:00,41.7,28.4,29.81,SSE,159,0.0,3.0,59,0.00,,,0.00,Wunderground v.1.15,2013-02-27 07:30:00,
2013-02-27 01:40:00,41.5,28.2,29.82,SSE,159,0.0,3.0,59,0.00,,,0.00,Wunderground v.1.15,2013-02-27 07:40:00,
2013-02-27 01:50:00,41.9,28.6,29.83,SSE,159,0.0,3.0,59,0.00,,,0.00,Wunderground v.1.15,2013-02-27 07:50:00,
2013-02-27 02:00:00,42.5,28.3,29.85,SSE,159,0.0,3.0,57,0.00,,,0.00,Wunderground v.1.15,2013-02-27 08:00:00,
2013-02-27 02:10:00,42.0,27.9,29.87,WNW,289,4.0,4.0,57,0.00,,,0.00,Wunderground v.1.15,2013-02-27 08:10:00,
2013-02-27 02:20:00,40.9,28.1,29.86,WNW,286,4.0,4.0,60,0.00,,,0.00,Wunderground v.1.15,2013-02-27 08:20:00,
2013-02-27 02:30:00,40.2,28.2,29.85,SW,221,1.0,3.0,62,0.00,,,0.00,Wunderground v.1.15,2013-02-27 08:30:00,
2013-02-27 02:40:00,38.9,27.8,29.84,SW,219,1.0,1.0,64,0.00,,,0.00,Wunderground v.1.15,2013-02-27 08:40:00,
2013-02-27 02:50:00,38.8,27.3,29.85,SW,219,0.0,3.0,63,0.00,,,0.00,Wunderground v.1.15,2013-02-27 08:50:00,
2013-02-27 03:00:00,39.9,26.3,29.84,SSW,211,0.0,3.0,58,0.00,,,0.00,Wunderground v.1.15,2013-02-27 09:00:00,
2013-02-27 03:10:00,40.2,27.0,29.84,SSW,211,0.0,3.0,59,0.00,,,0.00,Wunderground v.1.15,2013-02-27 09:10:00,
2013-02-27 03:20:00,39.3,27.0,29.85,SSW,211,0.0,3.0,61,0.00,,,0.00,Wunderground v.1.15,2013-02-27 09:20:00,
2013-02-27 03:30:00,38.6,26.3,29.85,SSW,211,0.0,3.0,61,0.00,,,0.00,Wunderground v.1.15,2013-02-27 09:30:00,
2013-02-27 03:40:00,38.4,26.1,29.86,SSW,212,0.0,3.0,61,0.00,,,0.00,Wunderground v.1.15,2013-02-27 09:40:00,
2013-02-27 03:50:00,38.9,24.5,29.86,SSW,212,0.0,3.0,56,0.00,,,0.00,Wunderground v.1.15,2013-02-27 09:50:00,
2013-02-27 04:00:00,40.8,24.5,29.87,SW,222,0.0,3.0,52,0.00,,,0.00,Wunderground v.1.15,2013-02-27 10:00:00,
2013-02-27 04:10:00,42.5,24.2,29.88,WSW,254,1.0,5.0,48,0.00,,,0.00,Wunderground v.1.15,2013-02-27 10:10:00,
2013-02-27 04:20:00,43.3,23.9,29.88,West,269,1.0,1.0,46,0.00,,,0.00,Wunderground v.1.15,2013-02-27 10:20:00,
2013-02-27 04:30:00,43.4,24.0,29.90,West,274,1.0,3.0,46,0.00,,,0.00,Wunderground v.1.15,2013-02-27 10:30:00,
2013-02-27 04:40:00,43.3,23.9,29.91,West,259,3.0,3.0,46,0.00,,,0.00,Wunderground v.1.15,2013-02-27 10:40:00,
2013-02-27 04:50:00,42.5,24.7,29.93,NW,305,6.0,12.0,49,0.00,,,0.00,Wunderground v.1.15,2013-02-27 10:50:00,
2013-02-27 05:00:00,40.8,26.7,29.95,North,355,8.0,8.0,57,0.00,,,0.00,Wunderground v.1.15,2013-02-27 11:00:00,
2013-02-27 05:10:00,39.2,27.7,29.96,NNW,327,8.0,8.0,63,0.00,,,0.00,Wunderground v.1.15,2013-02-27 11:10:00,
2013-02-27 05:20:00,38.2,27.8,29.97,NW,318,7.0,7.0,66,0.00,,,0.00,Wunderground v.1.15,2013-02-27 11:20:00,
2013-02-27 05:40:00,37.4,29.5,30.00,NNW,336,8.0,8.0,73,0.00,,,0.00,Wunderground v.1.15,2013-02-27 11:40:00,
2013-02-27 05:50:00,37.4,30.2,30.01,NNW,348,6.0,6.0,75,0.00,,,0.00,Wunderground v.1.15,2013-02-27 11:50:00,
2013-02-27 06:00:00,37.3,30.1,30.02,NNW,344,7.0,9.0,75,0.00,,,0.00,Wunderground v.1.15,2013-02-27 12:00:00,
2013-02-27 06:10:00,37.3,30.4,30.03,North,355,8.0,9.0,76,0.00,,,0.00,Wunderground v.1.15,2013-02-27 12:10:00,
2013-02-27 06:20:00,37.3,30.7,30.05,NNW,338,7.0,7.0,77,0.00,,,0.00,Wunderground v.1.15,2013-02-27 12:20:00,
2013-02-27 06:30:00,37.1,30.6,30.05,NNW,338,6.0,6.0,77,0.00,,,0.00,Wunderground v.1.15,2013-02-27 12:30:00,
2013-02-27 06:40:00,36.8,30.3,30.06,NNW,330,5.0,5.0,77,0.00,,,0.00,Wunderground v.1.15,2013-02-27 12:40:00,
2013-02-27 06:50:00,36.6,30.4,30.06,NNW,328,5.0,7.0,78,0.00,,,0.00,Wunderground v.1.15,2013-02-27 12:50:00,
2013-02-27 07:00:00,36.4,29.9,30.08,NW,315,3.0,5.0,77,0.00,,,0.00,Wunderground v.1.15,2013-02-27 13:00:00,
2013-02-27 07:10:00,36.2,30.0,30.08,NW,315,2.0,5.0,78,0.00,,,0.00,Wunderground v.1.15,2013-02-27 13:10:00,
2013-02-27 07:20:00,36.2,30.0,30.09,NW,315,1.0,1.0,78,0.00,,,0.00,Wunderground v.1.15,2013-02-27 13:20:00,
2013-02-27 07:30:00,36.4,29.9,30.09,NW,314,0.0,3.0,77,0.00,,,0.00,Wunderground v.1.15,2013-02-27 13:30:00,
2013-02-27 07:40:00,36.7,30.2,30.10,NW,313,0.0,3.0,77,0.00,,,0.00,Wunderground v.1.15,2013-02-27 13:40:00,
2013-02-27 07:50:00,37.3,30.4,30.11,NW,311,4.0,7.0,76,0.00,,,0.00,Wunderground v.1.15,2013-02-27 13:50:00,
2013-02-27 08:00:00,38.0,30.8,30.12,NW,304,4.0,6.0,75,0.00,,,0.00,Wunderground v.1.15,2013-02-27 14:00:00,
2013-02-27 08:10:00,38.8,30.9,30.13,NW,318,6.0,6.0,73,0.00,,,0.00,Wunderground v.1.15,2013-02-27 14:10:00,
2013-02-27 08:20:00,39.3,31.0,30.13,WNW,300,7.0,9.0,72,0.00,,,0.00,Wunderground v.1.15,2013-02-27 14:20:00,
2013-02-27 08:30:00,39.5,30.5,30.14,WNW,302,8.0,12.0,70,0.00,,,0.00,Wunderground v.1.15,2013-02-27 14:30:00,
2013-02-27 08:40:00,40.0,30.3,30.15,NW,317,7.0,7.0,68,0.00,,,0.00,Wunderground v.1.15,2013-02-27 14:40:00,
2013-02-27 08:50:00,40.5,30.0,30.15,NW,314,8.0,8.0,66,0.00,,,0.00,Wunderground v.1.15,2013-02-27 14:50:00,
2013-02-27 09:00:00,41.3,30.4,30.16,NW,316,6.0,9.0,65,0.00,,,0.00,Wunderground v.1.15,2013-02-27 15:00:00,
2013-02-27 09:10:00,42.2,29.7,30.16,North,355,6.0,8.0,61,0.00,,,0.00,Wunderground v.1.15,2013-02-27 15:10:00,
2013-02-27 09:20:00,42.5,29.2,30.16,NW,304,7.0,11.0,59,0.00,,,0.00,Wunderground v.1.15,2013-02-27 15:20:00,
2013-02-27 09:30:00,43.4,28.7,30.17,NNW,330,8.0,8.0,56,0.00,,,0.00,Wunderground v.1.15,2013-02-27 15:30:00,
2013-02-27 09:40:00,44.3,28.7,30.16,NW,315,8.0,8.0,54,0.00,,,0.00,Wunderground v.1.15,2013-02-27 15:40:00,
2013-02-27 09:50:00,45.0,27.9,30.17,NNW,329,8.0,11.0,51,0.00,,,0.00,Wunderground v.1.15,2013-02-27 15:50:00,
2013-02-27 10:00:00,45.4,27.3,30.17,North,5,9.0,9.0,49,0.00,,,0.00,Wunderground v.1.15,2013-02-27 16:00:00,
2013-02-27 10:10:00,46.1,25.4,30.17,NW,304,8.0,8.0,44,0.00,,,0.00,Wunderground v.1.15,2013-02-27 16:10:00,
2013-02-27 10:20:00,46.7,25.4,30.17,North,355,8.0,8.0,43,0.00,,,0.00,Wunderground v.1.15,2013-02-27 16:20:00,
2013-02-27 10:30:00,47.6,25.0,30.18,NW,316,7.0,8.0,41,0.00,,,0.00,Wunderground v.1.15,2013-02-27 16:30:00,
2013-02-27 10:40:00,48.0,24.8,30.18,West,281,8.0,13.0,40,0.00,,,0.00,Wunderground v.1.15,2013-02-27 16:40:00,
2013-02-27 10:50:00,49.0,24.5,30.18,NW,313,7.0,7.0,38,0.00,,,0.00,Wunderground v.1.15,2013-02-27 16:50:00,
2013-02-27 11:00:00,49.7,23.8,30.18,NNW,337,7.0,7.0,36,0.00,,,0.00,Wunderground v.1.15,2013-02-27 17:00:00,
2013-02-27 11:10:00,49.7,22.4,30.18,NNW,348,7.0,13.0,34,0.00,,,0.00,Wunderground v.1.15,2013-02-27 17:10:00,
2013-02-27 11:20:00,50.7,21.9,30.18,NNW,338,8.0,8.0,32,0.00,,,0.00,Wunderground v.1.15,2013-02-27 17:20:00,
2013-02-27 11:30:00,51.1,21.5,30.18,NW,304,9.0,9.0,31,0.00,,,0.00,Wunderground v.1.15,2013-02-27 17:30:00,
2013-02-27 11:40:00,51.9,21.4,30.19,NW,306,7.0,7.0,30,0.00,,,0.00,Wunderground v.1.15,2013-02-27 17:40:00,
2013-02-27 11:50:00,52.7,24.4,30.19,NW,309,8.0,8.0,33,0.00,,,0.00,Wunderground v.1.15,2013-02-27 17:50:00,
2013-02-27 12:00:00,53.0,26.0,30.19,NNW,338,8.0,8.0,35,0.00,,,0.00,Wunderground v.1.15,2013-02-27 18:00:00,
2013-02-27 12:10:00,53.9,28.2,30.19,WNW,300,8.0,13.0,37,0.00,,,0.00,Wunderground v.1.15,2013-02-27 18:10:00,
2013-02-27 12:20:00,53.9,28.2,30.18,North,355,8.0,8.0,37,0.00,,,0.00,Wunderground v.1.15,2013-02-27 18:20:00,
2013-02-27 12:30:00,54.5,29.4,30.18,NNW,344,8.0,10.0,38,0.00,,,0.00,Wunderground v.1.15,2013-02-27 18:30:00,
2013-02-27 12:40:00,54.3,29.2,30.17,NNW,338,9.0,14.0,38,0.00,,,0.00,Wunderground v.1.15,2013-02-27 18:40:00,
2013-02-27 12:50:00,54.1,29.7,30.17,North,11,9.0,9.0,39,0.00,,,0.00,Wunderground v.1.15,2013-02-27 18:50:00,
2013-02-27 13:00:00,54.4,29.9,30.17,NNW,333,10.0,13.0,39,0.00,,,0.00,Wunderground v.1.15,2013-02-27 19:00:00,
2013-02-27 13:10:00,54.9,29.7,30.17,NNW,346,10.0,10.0,38,0.00,,,0.00,Wunderground v.1.15,2013-02-27 19:10:00,
2013-02-27 13:20:00,54.8,29.7,30.17,North,355,11.0,13.0,38,0.00,,,0.00,Wunderground v.1.15,2013-02-27 19:20:00,
2013-02-27 13:30:00,55.1,30.6,30.16,NW,321,9.0,9.0,39,0.00,,,0.00,Wunderground v.1.15,2013-02-27 19:30:00,
2013-02-27 13:40:00,54.9,30.4,30.16,NNE,19,11.0,12.0,39,0.00,,,0.00,Wunderground v.1.15,2013-02-27 19:40:00,
2013-02-27 13:50:00,55.3,30.1,30.16,North,9,9.0,9.0,38,0.00,,,0.00,Wunderground v.1.15,2013-02-27 19:50:00,
2013-02-27 14:00:00,55.1,29.9,30.16,NNE,19,10.0,10.0,38,0.00,,,0.00,Wunderground v.1.15,2013-02-27 20:00:00,
2013-02-27 14:10:00,55.4,30.2,30.16,NW,325,10.0,10.0,38,0.00,,,0.00,Wunderground v.1.15,2013-02-27 20:10:00,
2013-02-27 14:20:00,55.8,29.9,30.16,NW,304,8.0,8.0,37,0.00,,,0.00,Wunderground v.1.15,2013-02-27 20:20:00,
2013-02-27 14:30:00,55.7,27.7,30.16,NNW,348,10.0,11.0,34,0.00,,,0.00,Wunderground v.1.15,2013-02-27 20:30:00,
2013-02-27 14:40:00,56.1,26.6,30.16,WNW,302,11.0,11.0,32,0.00,,,0.00,Wunderground v.1.15,2013-02-27 20:40:00,
2013-02-27 14:50:00,56.4,26.1,30.16,North,5,9.0,10.0,31,0.00,,,0.00,Wunderground v.1.15,2013-02-27 20:50:00,
2013-02-27 15:00:00,56.1,26.6,30.16,WNW,296,9.0,9.0,32,0.00,,,0.00,Wunderground v.1.15,2013-02-27 21:00:00,
2013-02-27 15:10:00,56.8,25.7,30.15,NNE,12,9.0,9.0,30,0.00,,,0.00,Wunderground v.1.15,2013-02-27 21:10:00,
2013-02-27 15:20:00,57.0,24.2,30.16,NNW,339,10.0,10.0,28,0.00,,,0.00,Wunderground v.1.15,2013-02-27 21:20:00,
2013-02-27 15:30:00,56.8,21.3,30.15,NNW,344,9.0,10.0,25,0.00,,,0.00,Wunderground v.1.15,2013-02-27 21:30:00,
2013-02-27 15:40:00,56.8,20.3,30.15,NNW,338,8.0,16.0,24,0.00,,,0.00,Wunderground v.1.15,2013-02-27 21:40:00,
2013-02-27 15:50:00,56.8,18.3,30.15,NNE,22,9.0,9.0,22,0.00,,,0.00,Wunderground v.1.15,2013-02-27 21:50:00,
2013-02-27 16:00:00,57.1,19.6,30.15,NNW,335,9.0,11.0,23,0.00,,,0.00,Wunderground v.1.15,2013-02-27 22:00:00,
2013-02-27 16:10:00,57.2,19.7,30.15,North,355,10.0,12.0,23,0.00,,,0.00,Wunderground v.1.15,2013-02-27 22:10:00,
2013-02-27 16:20:00,56.8,18.3,30.15,NNW,348,12.0,12.0,22,0.00,,,0.00,Wunderground v.1.15,2013-02-27 22:20:00,
2013-02-27 16:30:00,56.8,20.3,30.15,WNW,299,9.0,9.0,24,0.00,,,0.00,Wunderground v.1.15,2013-02-27 22:30:00,
2013-02-27 16:40:00,56.5,19.1,30.15,NW,323,9.0,9.0,23,0.00,,,0.00,Wunderground v.1.15,2013-02-27 22:40:00,
2013-02-27 16:50:00,56.2,19.8,30.15,North,9,10.0,10.0,24,0.00,,,0.00,Wunderground v.1.15,2013-02-27 22:50:00,
2013-02-27 17:00:00,56.2,19.8,30.15,North,5,8.0,8.0,24,0.00,,,0.00,Wunderground v.1.15,2013-02-27 23:00:00,
2013-02-27 17:10:00,56.0,19.7,30.15,NNW,335,8.0,8.0,24,0.00,,,0.00,Wunderground v.1.15,2013-02-27 23:10:00,
2013-02-27 17:20:00,55.9,21.5,30.16,NW,323,8.0,10.0,26,0.00,,,0.00,Wunderground v.1.15,2013-02-27 23:20:00,
2013-02-27 17:30:00,55.5,21.1,30.16,North,360,9.0,12.0,26,0.00,,,0.00,Wunderground v.1.15,2013-02-27 23:30:00,
2013-02-27 17:40:00,55.3,20.0,30.16,North,5,8.0,10.0,25,0.00,,,0.00,Wunderground v.1.15,2013-02-27 23:40:00,
2013-02-27 17:50:00,54.8,19.6,30.17,North,360,9.0,9.0,25,0.00,,,0.00,Wunderground v.1.15,2013-02-27 23:50:00,
2013-02-27 18:00:00,54.2,19.1,30.17,NNW,345,10.0,10.0,25,0.00,,,0.00,Wunderground v.1.15,2013-02-28 00:00:00,
2013-02-27 18:10:00,53.7,19.6,30.17,North,350,8.0,10.0,26,0.00,,,0.00,Wunderground v.1.15,2013-02-28 00:10:00,
2013-02-27 18:20:00,53.2,19.2,30.17,NNW,348,7.0,7.0,26,0.00,,,0.00,Wunderground v.1.15,2013-02-28 00:20:00,
2013-02-27 18:30:00,52.7,18.7,30.18,North,351,8.0,8.0,26,0.00,,,0.00,Wunderground v.1.15,2013-02-28 00:30:00,
2013-02-27 18:40:00,52.1,19.1,30.18,North,9,7.0,7.0,27,0.00,,,0.00,Wunderground v.1.15,2013-02-28 00:40:00,
2013-02-27 18:50:00,51.5,18.6,30.19,North,5,6.0,7.0,27,0.00,,,0.00,Wunderground v.1.15,2013-02-28 00:50:00,
2013-02-27 19:00:00,50.9,18.1,30.20,North,355,4.0,4.0,27,0.00,,,0.00,Wunderground v.1.15,2013-02-28 01:00:00,
2013-02-27 19:10:00,50.3,18.4,30.20,North,355,5.0,5.0,28,0.00,,,0.00,Wunderground v.1.15,2013-02-28 01:10:00,
2013-02-27 19:20:00,49.7,18.7,30.20,North,355,4.0,6.0,29,0.00,,,0.00,Wunderground v.1.15,2013-02-28 01:20:00,
2013-02-27 19:30:00,49.0,18.9,30.20,North,355,4.0,5.0,30,0.00,,,0.00,Wunderground v.1.15,2013-02-28 01:30:00,
2013-02-27 19:40:00,48.4,19.1,30.21,North,355,4.0,4.0,31,0.00,,,0.00,Wunderground v.1.15,2013-02-28 01:40:00,
2013-02-27 19:50:00,47.9,18.7,30.21,North,355,3.0,3.0,31,0.00,,,0.00,Wunderground v.1.15,2013-02-28 01:50:00,
2013-02-27 20:00:00,47.4,19.0,30.21,North,355,4.0,4.0,32,0.00,,,0.00,Wunderground v.1.15,2013-02-28 02:00:00,
2013-02-27 20:10:00,47.1,18.7,30.22,North,355,4.0,5.0,32,0.00,,,0.00,Wunderground v.1.15,2013-02-28 02:10:00,
2013-02-27 20:20:00,46.6,19.0,30.23,North,355,3.0,3.0,33,0.00,,,0.00,Wunderground v.1.15,2013-02-28 02:20:00,
2013-02-27 20:30:00,46.0,19.2,30.23,North,355,2.0,3.0,34,0.00,,,0.00,Wunderground v.1.15,2013-02-28 02:30:00,
2013-02-27 20:40:00,45.6,19.5,30.23,North,355,2.0,3.0,35,0.00,,,0.00,Wunderground v.1.15,2013-02-28 02:40:00,
2013-02-27 20:50:00,45.4,20.0,30.23,North,355,2.0,4.0,36,0.00,,,0.00,Wunderground v.1.15,2013-02-28 02:50:00,
2013-02-27 21:00:00,45.3,19.9,30.24,North,355,2.0,2.0,36,0.00,,,0.00,Wunderground v.1.15,2013-02-28 03:00:00,
2013-02-27 21:10:00,45.1,20.3,30.24,North,355,0.0,3.0,37,0.00,,,0.00,Wunderground v.1.15,2013-02-28 03:10:00,
2013-02-27 21:20:00,44.6,20.5,30.24,North,355,0.0,3.0,38,0.00,,,0.00,Wunderground v.1.15,2013-02-28 03:20:00,
2013-02-27 21:30:00,44.1,20.1,30.24,North,355,0.0,3.0,38,0.00,,,0.00,Wunderground v.1.15,2013-02-28 03:30:00,
2013-02-27 21:40:00,43.8,20.4,30.24,North,350,0.0,3.0,39,0.00,,,0.00,Wunderground v.1.15,2013-02-28 03:40:00,
2013-02-27 21:50:00,43.5,20.7,30.24,North,350,0.0,3.0,40,0.00,,,0.00,Wunderground v.1.15,2013-02-28 03:50:00,
2013-02-27 22:00:00,43.1,20.4,30.25,North,350,0.0,3.0,40,0.00,,,0.00,Wunderground v.1.15,2013-02-28 04:00:00,
2013-02-27 22:10:00,42.6,21.1,30.24,North,350,0.0,3.0,42,0.00,,,0.00,Wunderground v.1.15,2013-02-28 04:10:00,
2013-02-27 22:20:00,41.9,21.0,30.25,North,350,0.0,3.0,43,0.00,,,0.00,Wunderground v.1.15,2013-02-28 04:20:00,
2013-02-27 22:30:00,41.5,21.7,30.25,North,350,0.0,3.0,45,0.00,,,0.00,Wunderground v.1.15,2013-02-28 04:30:00,
2013-02-27 22:40:00,41.2,22.0,30.25,North,350,0.0,3.0,46,0.00,,,0.00,Wunderground v.1.15,2013-02-28 04:40:00,
2013-02-27 22:50:00,40.7,22.0,30.25,North,350,0.0,3.0,47,0.00,,,0.00,Wunderground v.1.15,2013-02-28 04:50:00,
2013-02-27 23:00:00,40.2,22.1,30.26,North,350,0.0,3.0,48,0.00,,,0.00,Wunderground v.1.15,2013-02-28 05:00:00,
2013-02-27 23:10:00,39.8,22.2,30.26,North,350,0.0,3.0,49,0.00,,,0.00,Wunderground v.1.15,2013-02-28 05:10:00,
2013-02-27 23:20:00,38.9,22.8,30.26,North,350,0.0,3.0,52,0.00,,,0.00,Wunderground v.1.15,2013-02-28 05:20:00,
2013-02-27 23:30:00,38.7,23.5,30.26,North,350,0.0,3.0,54,0.00,,,0.00,Wunderground v.1.15,2013-02-28 05:30:00,
2013-02-27 23:40:00,39.1,23.8,30.26,North,350,0.0,3.0,54,0.00,,,0.00,Wunderground v.1.15,2013-02-28 05:40:00,
2013-02-27 23:50:00,39.5,24.2,30.26,North,350,0.0,3.0,54,0.00,,,0.00,Wunderground v.1.15,2013-02-28 05:50:00,